Regional Weather Roundup
Issued by NWS New Orleans/Baton Rouge, LA

Home | Current Version | Previous Version | Graphics & Text | Print | Product List | Glossary Off
Versions: 1 2 3 4 5 6 7 8 9 10 11 12 13 14 15 16 17 18 19 20 21 22 23 24 25 26 27 28 29 30 31 32 33 34 35 36 37 38 39 40 41 42 43 44 45 46 47 48 49 50

243
ASUS44 KLIX 020610
RWRLIX
NEW ORLEANS REGIONAL WEATHER ROUNDUP
NATIONAL WEATHER SERVICE NEW ORLEANS LA
100 AM CDT SAT AUG 02 2014

NOTE: "FAIR" INDICATES FEW OR NO CLOUDS BELOW 12,000 FEET WITH NO
      SIGNIFICANT WEATHER AND/OR OBSTRUCTIONS TO VISIBILITY.
      SKY/WX - SKY CONDITION AND SIGNIFICANT WEATHER.
      TMP - AIR TEMPERATURE.     DP    - DEWPOINT TEMPERATURE.
      RH  - RELATIVE HUMIDITY.   PRES  - PRESSURE.
      HI  - HEAT INDEX.          WCI   - WIND CHILL INDEX.

*  THESE STATIONS ARE NOT NWS OR FAA STATIONS AND ARE NOT UNDER
   NWS QUALITY CONTROL.

LAZ038-040-048-061>063-065>067-069-020700-
SOUTHEAST LOUISIANA

CITY           SKY/WX    TMP DP  RH WIND       PRES   REMARKS
N.O. AUDUBON     N/A     82  73  73 MISG        N/A
6HR MIN TEMP:  81; 6HR MAX TEMP:  88;

N.O. INTL ARPT CLOUDY    80  70  71 SE8       29.97F
6HR MIN TEMP:  79; 6HR MAX TEMP:  85;

N.O. LAKEFRONT CLOUDY    80  71  74 SE7       29.98F
6HR MIN TEMP:  79; 6HR MAX TEMP:  83;

N.O. DOWNTOWN* CLOUDY    81  68  65 S5        29.98F
6HR MIN TEMP:  81; 6HR MAX TEMP:  86;

SLIDELL        PTCLDY    72  68  87 CALM      29.98F
6HR MIN TEMP:  72; 6HR MAX TEMP:  82;

BATON ROUGE    CLOUDY    76  73  91 E7        29.97S
6HR MIN TEMP:  76; 6HR MAX TEMP:  79;

BOOTHVILLE     CLEAR     78  73  84 SE3       30.00R
6HR MIN TEMP:  78; 6HR MAX TEMP:  82;

BELLE CHASSE   CLEAR     79  70  74 SE6       29.97F
6HR MIN TEMP:  76; 6HR MAX TEMP:  84;

BOGALUSA*      CLOUDY    76  70  82 CALM      30.01S
6HR MIN TEMP:  76; 6HR MAX TEMP:  80;

GALLIANO*      NOT AVBL
NEW ROADS*     MOCLDY    75  74  97 CALM      29.96F FOG
6HR MIN TEMP:  75; 6HR MAX TEMP:  79;

GONZALES*      MOCLDY    76  75  98 E3        29.97S
6HR MIN TEMP:  75; 6HR MAX TEMP:  80;

HAMMOND*       PTCLDY    75  68  78 CALM      30.00S
HOUMA*         PTCLDY    75  69  81 CALM      29.97F
6HR MIN TEMP:  75; 6HR MAX TEMP:  82;

PORT FOURCHON* CLEAR     82  70  65 SE7       29.99F

$$

MSZ070-080>082-020700-
SOUTHERN MISSISSIPPI

CITY           SKY/WX    TMP DP  RH WIND       PRES   REMARKS
MCCOMB         CLOUDY    72  70  93 E5        30.00S
6HR MIN TEMP:  72; 6HR MAX TEMP:  74; 6HR PCP: TRACE;

GULFPORT       CLOUDY    77  70  79 CALM      29.98F
6HR MIN TEMP:  76; 6HR MAX TEMP:  84;

BILOXI         PTCLDY    74  69  83 E5        29.98F
6HR MIN TEMP:  74; 6HR MAX TEMP:  80;

PASCAGOULA     PTCLDY    69  67  93 CALM      29.99F
6HR MIN TEMP:  69; 6HR MAX TEMP:  79; 6HR PCP: TRACE;


$$

COASTAL OBSERVATIONS
LAKE AND NEARSHORE STATIONS

STATION/POSITION TIME  TEMP    WIND        PRES    WAVE
                       AIR SEA DIR/SP/G            HT/PER
                 (UTC) (F)     (DEG/KT/KT) (MB)    (FT/S)
PASCAGOULA       0600   75      10/  3/  5 1015.1
WAVELAND YACHT   0600   79      60/  4/  5 1014.8
GRAND ISLE       0600   82 86  140/  5/  8 1015.8
SOUTHWEST PASS   0600   82 85  110/  8/  9 1015.7
NEW CANAL        0600   81 82  130/  1/  5 1015.6
SHELL BEACH      0600   80 81  110/  6/  7 1015.2

OFFSHORE STATIONS

STATION/POSITION TIME  TEMP    WIND        PRES    WAVE
                       AIR SEA DIR/SP/G            HT/PER
                 (UTC) (F)     (DEG/KT/KT) (MB)    (FT/S)
64 S DAUPHIN ISL 0453   82 84   70/  2/  2 1015.4

$$




USA.gov is the U.S. government's official web portal to all federal, state and local government web resources and services.